Regional Weather Roundup
Issued by NWS San Angelo, TX

Home | Current Version | Previous Version | Text Only | Print | Product List | Glossary On
Versions: 1 2 3 4 5 6 7 8 9 10 11 12 13 14 15 16 17 18 19 20 21 22 23 24 25 26 27 28 29 30 31 32 33 34 35 36 37 38 39 40 41 42 43 44 45 46 47 48 49 50
000
ASUS44 KSJT 201502
RWRSJT
WEST CENTRAL TEXAS REGIONAL WEATHER ROUNDUP
NATIONAL WEATHER SERVICE SAN ANGELO TX
900 AM CST MON FEB 20 2017

NOTE: "FAIR" INDICATES FEW OR NO CLOUDS BELOW 12,000 FEET WITH NO
SIGNIFICANT WEATHER AND/OR OBSTRUCTIONS TO VISIBILITY.

TXZ049-054-064>066-071>073-076>078-098-099-113-114-127-128-139-140-
154-155-168>170-201600
...LOCATIONS ACROSS WEST CENTRAL TEXAS...

CITY           SKY/WX    TMP DP  RH WIND       PRES   REMARKS
SAN ANGELO     MOSUNNY   52  40  63 W12       30.00R
ABILENE        PTSUNNY   53  44  71 SW7       29.96R
DYESS AFB      PTSUNNY   54  42  65 W8        29.95R
JUNCTION       CLOUDY    54  48  80 W3        30.02R
SWEETWATER     SUNNY     51  38  62 SW9       29.98R
BROWNWOOD      CLOUDY    54  54 100 S6        29.99R
COLEMAN        CLOUDY    55  48  77 S5        29.99R
SONORA         SUNNY     52  45  76 CALM      30.08R
OZONA          NOT AVBL
BRADY          NOT AVBL
$$

TEXAS PANHANDLE/OKLAHOMA PANHANDLE

CITY           SKY/WX    TMP DP  RH WIND       PRES   REMARKS
AMARILLO       SUNNY     46  33  60 NW16      29.92R WCI  39
BORGER         SUNNY     51  33  50 NW15      29.91R
CANADIAN       SUNNY     50  35  56 W8        29.87R
DALHART        SUNNY     52  29  41 N17       29.96R
DUMAS          SUNNY     48  33  56 N18G24    29.92R
GUYMON         NOT AVBL
HEREFORD       SUNNY     48  36  64 NW21      29.94R
PAMPA          SUNNY     47  33  59 NW8       29.90R
PERRYTON       SUNNY     49  34  57 NW15      29.84S
$$

SOUTHERN PANHANDLE/SOUTH PLAINS/ROLLING PLAINS

CITY           SKY/WX    TMP DP  RH WIND       PRES   REMARKS
LUBBOCK        MOSUNNY   51  34  52 W23       29.90R
SNYDER         SUNNY     48  37  66 SW9       29.95R
CHILDRESS      CLOUDY    52  38  58 W9        29.88R
SEMINOLE       SUNNY     51  33  50 W22G28    29.98R
$$

PERMIAN BASIN

CITY           SKY/WX    TMP DP  RH WIND       PRES   REMARKS
MIDLAND        SUNNY     51  35  54 W15       29.99R
ODESSA         SUNNY     51  32  48 W10       30.00R
WINK           SUNNY     52  35  52 W20G26    30.00R
$$

FAR WEST/SOUTHWEST MOUNTAINS/TRANS PECOS

CITY           SKY/WX    TMP DP  RH WIND       PRES   REMARKS
ALPINE         SUNNY     50  32  50 W10       30.15R
DRYDEN           N/A     54  41  61 W15       30.03R
EL PASO        MOSUNNY   49  34  56 W29G36    30.14R
FORT STOCKTON  SUNNY     53  34  48 W15       30.04R
GUADALUPE PASS PTSUNNY   40  35  83 SW35G43   30.10R WCI  28
MARFA          SUNNY     46  33  60 W15G30    30.15R WCI  40
PECOS          SUNNY     54  35  48 W24       30.03R
$$

DALLAS/FORT WORTH METROPLEX

CITY           SKY/WX    TMP DP  RH WIND       PRES   REMARKS
DFW AIRPORT    CLOUDY    59  57  93 S13       29.95R
FTW MEACHAM    CLOUDY    59  55  87 SE12      29.97R
DAL-EXECUTIVE  CLOUDY    58  57  97 SE17G31   29.92S
GRAND PRAIRIE  CLOUDY    57  57 100 S6        29.98R
ADDISON        CLOUDY    57  54  88 SE14G29   29.91F
MESQUITE       CLOUDY    57  55  94 E17G23    29.96F
LANCASTER      CLOUDY    57  56  95 SE14      29.96R
$$

NORTH CENTRAL TEXAS

CITY           SKY/WX    TMP DP  RH WIND       PRES   REMARKS
SHRMAN/DENISON CLOUDY    56  55  95 SW12      29.96R
GAINESVILLE    CLOUDY    55  54  95 S6        29.98R
BRIDGEPORT     PTSUNNY   56  56 100 SE8       29.96R
DENTON         CLOUDY    57  56  96 S10       29.96R
WAXAHACHIE     CLOUDY    57  57 100 SE12G23   29.93F
GRANBURY       CLOUDY    58  56  90 SE8       29.98R
$$

WESTERN NORTH TEXAS

CITY           SKY/WX    TMP DP  RH WIND       PRES   REMARKS
WICHITA FALLS  CLOUDY    55  52  89 S13       29.86S
VERNON         CLOUDY    54  48  81 W7        29.87R
BRECKENRIDGE   NOT AVBL
COMANCHE       CLOUDY    55  55 100 S8        29.99R
$$

CENTRAL AND SOUTH CENTRAL TEXAS

CITY           SKY/WX    TMP DP  RH WIND       PRES   REMARKS
AUSTIN/BERGSTM LGT RAIN  60  60 100 NE3       29.98S
WACO           LGT RAIN  58  57  97 MISG      29.97R
HILLSBORO      CLOUDY    58  57  96 SE12G20   29.97R
TEMPLE         CLOUDY    58  57  97 SE15G21   29.99R
KILLEEN-GRAY   CLOUDY    56  56  98 SE8       30.00F
FORT HOOD      CLOUDY    56  56 100 S10       29.99R
GEORGETOWN     CLOUDY    57  55  94 S5        30.00R
LAGO VISTA     CLOUDY    58  57  97 CALM      29.99F FOG
SAN MARCOS     CLOUDY    59  57  94 NE6       30.00R
NEW BRAUNFELS  CLOUDY    60  58  92 NW5       30.00S
RANDOLPH AFB   CLOUDY    60  60 100 NE3       30.02R
SAN ANTONIO    CLOUDY    60  58  92 E8        30.00R FOG
STINSON        CLOUDY    61  59  94 VRB6      29.98R FOG
PLEASANTON     NOT AVBL
LA GRANGE      LGT RAIN  60  59  97 E6        29.95F
GIDDINGS       RAIN      57  56  97 E13       29.98F
$$

EAST TEXAS

CITY           SKY/WX    TMP DP  RH WIND       PRES   REMARKS
PARIS          CLOUDY    57  54  88 S13       30.01R
CLARKSVILLE    NOT AVBL
TYLER          LGT RAIN  58  58 100 VRB3      30.06R
LONGVIEW       LGT RAIN  59  59 100 CALM      30.05S FOG
PALESTINE      NOT AVBL
NACOGDOCHES    CLOUDY    57  55  94 N6        30.05R
$$

TEXAS HILL COUNTRY AND EDWARDS PLATEAU

CITY           SKY/WX    TMP DP  RH WIND       PRES   REMARKS
LLANO          NOT AVBL
HORSESHOE BAY  CLOUDY    58  57  97 CALM      29.99F
KERRVILLE      CLOUDY    56  55  94 NW6       29.99F
FREDERICKSBRG  NOT AVBL
ROCKSPRINGS    NOT AVBL
HONDO          CLOUDY    60  56  86 N7        30.00R
UVALDE         CLOUDY    58  54  85 CALM      30.03R
DEL RIO        SUNNY     58  47  66 NW8       30.04R
$$

SOUTHEAST TEXAS

CITY           SKY/WX    TMP DP  RH WIND       PRES   REMARKS
COLLEGE STN    RAIN      59  58  96 NE7       30.04R FOG
CALDWELL       NOT AVBL
CROCKETT       NOT AVBL
BRENHAM        LGT RAIN  60  60  99 NE8       30.01F
HUNTSVILLE     RAIN      59  57  93 E3        30.04R FOG
CONROE         RAIN      60  59  96 CALM      30.05R FOG
HOUSTON BUSH   HVY RAIN  62  59  90 N10       30.02S FOG
HOUSTON HOBBY  RAIN      62  60  93 N14       30.01R FOG
PERLAND        RAIN      63  60  90 N14G22    30.02F FOG
WHARTON        RAIN      61  60  97 NE9       30.00S
$$

THE UPPER TEXAS COAST

CITY           SKY/WX    TMP DP  RH WIND       PRES   REMARKS
ORANGE         CLOUDY    73  69  88 SE8       30.03S
PORT ARTHUR    CLOUDY    74  68  81 SE9       30.00S
GALVESTON      RAIN      65  62  90 NW25G33   30.00R FOG
ANGLETON       RAIN      63  61  93 N8        30.02R FOG
BAY CITY       HVY RAIN  62  62  97 NE9       30.01R
$$

TEXAS COASTAL BEND, RIO GRANDE PLAINS DEEP SOUTH TEXAS

CITY           SKY/WX    TMP DP  RH WIND       PRES   REMARKS
VICTORIA       CLOUDY    62  60  93 E8        30.00R
BEEVILLE       LGT RAIN  55  55 100 E3        30.01R
ROCKPORT       LGT RAIN  64  62  93 NE7       30.01R
PORT ARANSAS   CLOUDY    64  63  96 NE10      29.99R
PORT LAVACA    LGT RAIN  61  61 100 NE15      29.97R
CORPUS CHRISTI LGT RAIN  64  64 100 NE6       29.98S
KINGSVILLE NAS CLOUDY    64  64 100 N8        29.97R
COTULLA        CLOUDY    61  57  87 NW3       30.00R
LAREDO         CLOUDY    61  57  87 NW9       30.03R
BROWNSVILLE    CLOUDY    68  66  93 CALM      29.95R
PORT ISABEL    CLOUDY    67  66  97 N5        29.94S
HEBBRONVILLE   CLOUDY    61  56  84 NW10      30.01R
MCALLEN        LGT RAIN  67  64  90 CALM      29.98R
WESLACO        CLOUDY    65  63  91 NW5       29.97R
FALFURRIAS     CLOUDY    64  62  94 NW5       29.99R
EDINBURG       LGT RAIN  66  63  89 N7        29.98R
$$



USA.gov is the U.S. government's official web portal to all federal, state and local government web resources and services.